Time,TemperatureF,DewpointF,PressureIn,WindDirection,WindDirectionDegrees,WindSpeedMPH,WindSpeedGustMPH,Humidity,HourlyPrecipIn,Conditions,Clouds,dailyrainin,SoftwareType,DateUTC
2013-05-20 00:04:00,77.5,74.1,29.74,ESE,106,14.0,21.0,89,0.00,,,0.00,meteohub,2013-05-20 05:04:00,
2013-05-20 00:09:00,77.5,74.1,29.74,SE,127,8.0,21.0,89,0.00,,,0.00,meteohub,2013-05-20 05:09:00,
2013-05-20 00:14:00,77.5,74.1,29.74,SE,134,14.0,21.0,89,0.00,,,0.00,meteohub,2013-05-20 05:14:00,
2013-05-20 00:19:00,77.5,74.3,29.73,SE,137,13.0,21.0,90,0.00,,,0.00,meteohub,2013-05-20 05:19:00,
2013-05-20 00:24:00,77.4,74.1,29.73,ESE,123,11.0,21.0,90,0.00,,,0.00,meteohub,2013-05-20 05:24:00,
2013-05-20 00:30:00,77.4,74.1,29.73,SE,135,9.0,21.0,90,0.00,,,0.00,meteohub,2013-05-20 05:30:00,
2013-05-20 00:35:00,77.4,74.1,29.73,SE,141,11.0,21.0,90,0.00,,,0.00,meteohub,2013-05-20 05:35:00,
2013-05-20 00:40:00,77.4,74.1,29.73,SE,143,14.0,20.0,90,0.00,,,0.00,meteohub,2013-05-20 05:40:00,
2013-05-20 00:45:00,77.2,74.3,29.73,East,98,15.0,19.0,91,0.00,,,0.00,meteohub,2013-05-20 05:45:00,
2013-05-20 00:50:00,77.2,74.3,29.72,SE,143,13.0,19.0,91,0.00,,,0.00,meteohub,2013-05-20 05:50:00,
2013-05-20 00:55:00,77.2,74.3,29.72,SE,146,12.0,19.0,91,0.00,,,0.00,meteohub,2013-05-20 05:55:00,
2013-05-20 01:00:00,77.2,74.3,29.73,SSE,153,12.0,19.0,91,0.00,,,0.00,meteohub,2013-05-20 06:00:00,
2013-05-20 01:05:00,77.2,74.3,29.72,SE,127,10.0,19.0,91,0.00,,,0.00,meteohub,2013-05-20 06:05:00,
2013-05-20 01:10:00,77.2,74.7,29.72,ESE,118,13.0,20.0,92,0.00,,,0.00,meteohub,2013-05-20 06:10:00,
2013-05-20 01:15:00,77.2,74.7,29.72,ESE,122,14.0,20.0,92,0.00,,,0.00,meteohub,2013-05-20 06:15:00,
2013-05-20 01:20:00,77.2,74.7,29.72,SE,124,12.0,21.0,92,0.00,,,0.00,meteohub,2013-05-20 06:20:00,
2013-05-20 01:25:00,77.2,74.7,29.72,SSE,158,7.0,21.0,92,0.00,,,0.00,meteohub,2013-05-20 06:25:00,
2013-05-20 01:31:00,77.0,74.5,29.72,SE,129,10.0,21.0,92,0.00,,,0.00,meteohub,2013-05-20 06:31:00,
2013-05-20 01:36:00,77.0,74.5,29.72,ESE,122,16.0,19.0,92,0.00,,,0.00,meteohub,2013-05-20 06:36:00,
2013-05-20 01:41:00,77.0,74.5,29.72,SE,125,13.0,19.0,92,0.00,,,0.00,meteohub,2013-05-20 06:41:00,
2013-05-20 01:46:00,77.0,74.5,29.72,ESE,116,15.0,19.0,92,0.00,,,0.00,meteohub,2013-05-20 06:46:00,
2013-05-20 01:51:00,77.2,74.7,29.72,SSE,162,7.0,19.0,92,0.00,,,0.00,meteohub,2013-05-20 06:51:00,
2013-05-20 01:56:00,77.2,74.7,29.72,SE,124,12.0,21.0,92,0.00,,,0.00,meteohub,2013-05-20 06:56:00,
2013-05-20 02:01:00,77.2,74.7,29.71,SE,133,7.0,21.0,92,0.00,,,0.00,meteohub,2013-05-20 07:01:00,
2013-05-20 02:07:00,77.2,74.7,29.71,SE,141,11.0,21.0,92,0.00,,,0.00,meteohub,2013-05-20 07:07:00,
2013-05-20 02:12:00,77.2,74.7,29.72,SE,131,10.0,20.0,92,0.00,,,0.00,meteohub,2013-05-20 07:12:00,
2013-05-20 02:17:00,77.2,74.7,29.72,SE,127,13.0,22.0,92,0.00,,,0.00,meteohub,2013-05-20 07:17:00,
2013-05-20 02:22:00,77.2,74.7,29.72,SE,135,12.0,22.0,92,0.00,,,0.00,meteohub,2013-05-20 07:22:00,
2013-05-20 02:27:00,77.4,74.8,29.72,SSE,150,18.0,22.0,92,0.00,,,0.00,meteohub,2013-05-20 07:27:00,
2013-05-20 02:32:00,77.4,74.8,29.72,SE,134,8.0,20.0,92,0.00,,,0.00,meteohub,2013-05-20 07:32:00,
2013-05-20 02:37:00,77.4,74.8,29.72,ESE,115,12.0,21.0,92,0.00,,,0.00,meteohub,2013-05-20 07:37:00,
2013-05-20 02:42:00,77.5,75.0,29.72,SSE,163,7.0,21.0,92,0.00,,,0.00,meteohub,2013-05-20 07:42:00,
2013-05-20 02:47:00,77.5,75.0,29.72,SE,143,8.0,19.0,92,0.00,,,0.00,meteohub,2013-05-20 07:47:00,
2013-05-20 02:52:00,77.5,75.0,29.72,SSE,152,12.0,20.0,92,0.00,,,0.00,meteohub,2013-05-20 07:52:00,
2013-05-20 02:57:00,77.5,75.0,29.73,SSE,156,8.0,20.0,92,0.00,,,0.00,meteohub,2013-05-20 07:57:00,
2013-05-20 03:02:00,77.5,75.0,29.73,South,173,14.0,20.0,92,0.00,,,0.00,meteohub,2013-05-20 08:02:00,
2013-05-20 03:07:00,77.5,75.0,29.73,ESE,116,13.0,17.0,92,0.00,,,0.00,meteohub,2013-05-20 08:07:00,
2013-05-20 03:12:00,77.5,74.7,29.73,SE,132,10.0,17.0,91,0.00,,,0.00,meteohub,2013-05-20 08:12:00,
2013-05-20 03:17:00,77.7,74.8,29.73,SSE,155,10.0,19.0,91,0.00,,,0.00,meteohub,2013-05-20 08:17:00,
2013-05-20 03:22:00,77.7,74.8,29.73,SSE,154,14.0,19.0,91,0.00,,,0.00,meteohub,2013-05-20 08:22:00,
2013-05-20 03:27:00,77.7,74.8,29.73,SE,137,8.0,19.0,91,0.00,,,0.00,meteohub,2013-05-20 08:27:00,
2013-05-20 03:32:00,77.7,74.8,29.73,SE,141,9.0,18.0,91,0.00,,,0.00,meteohub,2013-05-20 08:32:00,
2013-05-20 03:37:00,77.7,74.8,29.72,SE,143,13.0,18.0,91,0.00,,,0.00,meteohub,2013-05-20 08:37:00,
2013-05-20 03:42:00,77.7,74.8,29.72,SE,138,11.0,19.0,91,0.00,,,0.00,meteohub,2013-05-20 08:42:00,
2013-05-20 03:47:00,77.7,74.8,29.72,SE,134,12.0,19.0,91,0.00,,,0.00,meteohub,2013-05-20 08:47:00,
2013-05-20 03:52:00,77.7,74.8,29.72,East,101,14.0,19.0,91,0.00,,,0.00,meteohub,2013-05-20 08:52:00,
2013-05-20 03:57:00,77.7,74.8,29.72,SSE,159,12.0,17.0,91,0.00,,,0.00,meteohub,2013-05-20 08:57:00,
2013-05-20 04:02:00,77.7,74.8,29.72,SSE,166,12.0,18.0,91,0.00,,,0.00,meteohub,2013-05-20 09:02:00,
2013-05-20 04:07:00,77.7,74.8,29.72,SE,134,7.0,19.0,91,0.00,,,0.00,meteohub,2013-05-20 09:07:00,
2013-05-20 04:12:00,77.7,74.5,29.72,SE,141,13.0,19.0,90,0.00,,,0.00,meteohub,2013-05-20 09:12:00,
2013-05-20 04:17:00,77.7,74.5,29.72,SSE,160,9.0,19.0,90,0.00,,,0.00,meteohub,2013-05-20 09:17:00,
2013-05-20 04:22:00,77.7,74.5,29.72,SE,137,10.0,19.0,90,0.00,,,0.00,meteohub,2013-05-20 09:22:00,
2013-05-20 04:27:00,77.7,74.5,29.72,SSE,155,9.0,19.0,90,0.00,,,0.00,meteohub,2013-05-20 09:27:00,
2013-05-20 04:32:00,77.7,74.3,29.72,SSE,160,8.0,19.0,89,0.00,,,0.00,meteohub,2013-05-20 09:32:00,
2013-05-20 04:37:00,77.7,74.3,29.72,SSE,162,11.0,19.0,89,0.00,,,0.00,meteohub,2013-05-20 09:37:00,
2013-05-20 04:42:00,77.7,74.3,29.72,SE,135,11.0,18.0,89,0.00,,,0.00,meteohub,2013-05-20 09:42:00,
2013-05-20 04:47:00,77.5,73.8,29.72,SSE,160,10.0,18.0,88,0.00,,,0.00,meteohub,2013-05-20 09:47:00,
2013-05-20 04:52:00,77.7,73.9,29.73,SE,127,12.0,17.0,88,0.00,,,0.00,meteohub,2013-05-20 09:52:00,
2013-05-20 04:57:00,77.5,73.8,29.72,SSE,160,12.0,18.0,88,0.00,,,0.00,meteohub,2013-05-20 09:57:00,
2013-05-20 05:02:00,77.5,73.8,29.72,SE,133,10.0,18.0,88,0.00,,,0.00,meteohub,2013-05-20 10:02:00,
2013-05-20 05:07:00,77.7,73.9,29.72,ESE,123,11.0,18.0,88,0.00,,,0.00,meteohub,2013-05-20 10:07:00,
2013-05-20 05:12:00,77.5,73.8,29.72,SE,135,8.0,17.0,88,0.00,,,0.00,meteohub,2013-05-20 10:12:00,
2013-05-20 05:17:00,77.5,73.8,29.72,SE,134,13.0,17.0,88,0.00,,,0.00,meteohub,2013-05-20 10:17:00,
2013-05-20 05:21:00,77.5,73.8,29.72,SSE,167,12.0,20.0,88,0.00,,,0.00,meteohub,2013-05-20 10:21:00,
2013-05-20 05:27:00,77.5,73.8,29.72,SE,138,15.0,20.0,88,0.00,,,0.00,meteohub,2013-05-20 10:27:00,
2013-05-20 05:32:00,77.5,73.8,29.72,SE,141,8.0,20.0,88,0.00,,,0.00,meteohub,2013-05-20 10:32:00,
2013-05-20 05:37:00,77.5,73.8,29.72,SE,143,13.0,19.0,88,0.00,,,0.00,meteohub,2013-05-20 10:37:00,
2013-05-20 05:42:00,77.5,73.8,29.72,SE,141,12.0,18.0,88,0.00,,,0.00,meteohub,2013-05-20 10:42:00,
2013-05-20 05:47:00,77.4,73.6,29.72,South,188,10.0,18.0,88,0.00,,,0.00,meteohub,2013-05-20 10:47:00,
2013-05-20 05:52:00,77.5,73.8,29.72,SE,131,10.0,19.0,88,0.00,,,0.00,meteohub,2013-05-20 10:52:00,
2013-05-20 05:57:00,77.5,73.8,29.72,SE,136,10.0,19.0,88,0.00,,,0.00,meteohub,2013-05-20 10:57:00,
2013-05-20 06:02:00,77.5,73.8,29.72,SE,138,9.0,19.0,88,0.00,,,0.00,meteohub,2013-05-20 11:02:00,
2013-05-20 06:07:00,77.5,73.8,29.72,SSE,153,14.0,19.0,88,0.00,,,0.00,meteohub,2013-05-20 11:07:00,
2013-05-20 06:12:00,77.5,73.4,29.73,SSE,150,15.0,19.0,87,0.00,,,0.00,meteohub,2013-05-20 11:12:00,
2013-05-20 06:17:00,77.5,73.4,29.73,East,81,9.0,20.0,87,0.00,,,0.00,meteohub,2013-05-20 11:17:00,
2013-05-20 06:22:00,77.5,73.4,29.73,SSE,149,7.0,20.0,87,0.00,,,0.00,meteohub,2013-05-20 11:22:00,
2013-05-20 06:27:00,77.5,73.8,29.73,SSE,148,12.0,20.0,88,0.00,,,0.00,meteohub,2013-05-20 11:27:00,
2013-05-20 06:32:00,77.5,73.4,29.73,SE,141,8.0,18.0,87,0.00,,,0.00,meteohub,2013-05-20 11:32:00,
2013-05-20 06:37:00,77.5,73.4,29.73,South,171,10.0,21.0,87,0.00,,,0.00,meteohub,2013-05-20 11:37:00,
2013-05-20 06:42:00,77.5,73.8,29.73,SE,136,11.0,21.0,88,0.00,,,0.00,meteohub,2013-05-20 11:42:00,
2013-05-20 06:47:00,77.5,73.8,29.74,SSE,160,8.0,21.0,88,0.00,,,0.00,meteohub,2013-05-20 11:47:00,
2013-05-20 06:52:00,77.5,73.8,29.74,SE,136,10.0,18.0,88,0.00,,,0.00,meteohub,2013-05-20 11:52:00,
2013-05-20 06:57:00,77.5,73.8,29.74,SSE,162,12.0,20.0,88,0.00,,,0.00,meteohub,2013-05-20 11:57:00,
2013-05-20 07:02:00,77.7,73.9,29.74,SE,124,10.0,20.0,88,0.00,,,0.00,meteohub,2013-05-20 12:02:00,
2013-05-20 07:07:00,77.5,73.8,29.74,ESE,112,11.0,21.0,88,0.00,,,0.00,meteohub,2013-05-20 12:07:00,
2013-05-20 07:12:00,77.5,73.8,29.74,South,172,14.0,21.0,88,0.00,,,0.00,meteohub,2013-05-20 12:12:00,
2013-05-20 07:17:00,77.7,73.9,29.74,ESE,123,12.0,21.0,88,0.00,,,0.00,meteohub,2013-05-20 12:17:00,
2013-05-20 07:22:00,77.7,73.9,29.74,SE,130,10.0,18.0,88,0.00,,,0.00,meteohub,2013-05-20 12:22:00,
2013-05-20 07:27:00,77.7,73.9,29.74,SE,124,15.0,21.0,88,0.00,,,0.00,meteohub,2013-05-20 12:27:00,
2013-05-20 07:32:00,77.7,73.9,29.74,SE,127,12.0,21.0,88,0.00,,,0.00,meteohub,2013-05-20 12:32:00,
2013-05-20 07:37:00,77.9,74.1,29.75,SE,124,11.0,21.0,88,0.00,,,0.00,meteohub,2013-05-20 12:37:00,
2013-05-20 07:42:00,78.1,73.9,29.75,SSE,162,14.0,21.0,87,0.00,,,0.00,meteohub,2013-05-20 12:42:00,
2013-05-20 07:47:00,78.1,73.9,29.74,South,184,17.0,21.0,87,0.00,,,0.00,meteohub,2013-05-20 12:47:00,
2013-05-20 07:52:00,78.3,74.1,29.74,SE,146,18.0,22.0,87,0.00,,,0.00,meteohub,2013-05-20 12:52:00,
2013-05-20 07:57:00,78.3,73.8,29.74,SE,146,13.0,24.0,86,0.00,,,0.00,meteohub,2013-05-20 12:57:00,
2013-05-20 08:02:00,78.4,73.9,29.75,SE,124,13.0,25.0,86,0.00,,,0.00,meteohub,2013-05-20 13:02:00,
2013-05-20 08:07:00,78.6,74.1,29.75,South,174,14.0,25.0,86,0.00,,,0.00,meteohub,2013-05-20 13:07:00,
2013-05-20 08:12:00,78.8,73.9,29.75,SE,146,15.0,21.0,85,0.00,,,0.00,meteohub,2013-05-20 13:12:00,
2013-05-20 08:17:00,78.8,74.3,29.75,SE,140,18.0,22.0,86,0.00,,,0.00,meteohub,2013-05-20 13:17:00,
2013-05-20 08:22:00,78.8,73.9,29.75,SSE,158,14.0,25.0,85,0.00,,,0.00,meteohub,2013-05-20 13:22:00,
2013-05-20 08:27:00,79.0,74.1,29.75,SE,146,16.0,25.0,85,0.00,,,0.00,meteohub,2013-05-20 13:27:00,
2013-05-20 08:32:00,79.0,74.1,29.75,SE,142,14.0,24.0,85,0.00,,,0.00,meteohub,2013-05-20 13:32:00,
2013-05-20 08:37:00,79.2,73.9,29.75,SE,130,13.0,24.0,84,0.00,,,0.00,meteohub,2013-05-20 13:37:00,
2013-05-20 08:42:00,79.2,73.9,29.76,ESE,107,13.0,25.0,84,0.00,,,0.00,meteohub,2013-05-20 13:42:00,
2013-05-20 08:47:00,79.3,74.1,29.76,SE,135,19.0,25.0,84,0.00,,,0.00,meteohub,2013-05-20 13:47:00,
2013-05-20 08:52:00,79.3,73.8,29.76,SE,132,15.0,23.0,83,0.00,,,0.00,meteohub,2013-05-20 13:52:00,
2013-05-20 08:57:00,79.5,73.9,29.76,SE,144,11.0,23.0,83,0.00,,,0.00,meteohub,2013-05-20 13:57:00,
2013-05-20 09:02:00,79.7,74.1,29.76,SE,141,15.0,24.0,83,0.00,,,0.00,meteohub,2013-05-20 14:02:00,
2013-05-20 09:07:00,79.9,73.9,29.77,SE,146,9.0,24.0,82,0.00,,,0.00,meteohub,2013-05-20 14:07:00,
2013-05-20 09:12:00,79.9,73.9,29.77,SSE,152,17.0,24.0,82,0.00,,,0.00,meteohub,2013-05-20 14:12:00,
2013-05-20 09:17:00,80.1,74.1,29.77,SE,146,18.0,24.0,82,0.00,,,0.00,meteohub,2013-05-20 14:17:00,
2013-05-20 09:22:00,80.2,74.3,29.77,SE,129,12.0,24.0,82,0.00,,,0.00,meteohub,2013-05-20 14:22:00,
2013-05-20 09:27:00,80.2,73.9,29.77,SSE,162,13.0,23.0,81,0.00,,,0.00,meteohub,2013-05-20 14:27:00,
2013-05-20 09:32:00,80.1,74.1,29.77,SE,134,13.0,22.0,82,0.00,,,0.00,meteohub,2013-05-20 14:32:00,
2013-05-20 09:37:00,80.6,74.3,29.78,South,180,9.0,21.0,81,0.00,,,0.00,meteohub,2013-05-20 14:37:00,
2013-05-20 09:42:00,81.0,74.7,29.78,SE,134,18.0,21.0,81,0.00,,,0.00,meteohub,2013-05-20 14:42:00,
2013-05-20 09:47:00,80.4,74.1,29.78,SE,133,9.0,23.0,81,0.00,,,0.00,meteohub,2013-05-20 14:47:00,
2013-05-20 09:52:00,80.8,74.5,29.78,SE,134,13.0,23.0,81,0.00,,,0.00,meteohub,2013-05-20 14:52:00,
2013-05-20 09:57:00,81.0,74.7,29.78,SE,141,9.0,23.0,81,0.00,,,0.00,meteohub,2013-05-20 14:57:00,
2013-05-20 10:02:00,81.1,74.7,29.78,SSE,160,11.0,21.0,81,0.00,,,0.00,meteohub,2013-05-20 15:02:00,
2013-05-20 10:07:00,81.3,74.5,29.78,ESE,107,10.0,21.0,80,0.00,,,0.00,meteohub,2013-05-20 15:07:00,
2013-05-20 10:12:00,81.7,74.5,29.78,SSE,165,11.0,22.0,79,0.00,,,0.00,meteohub,2013-05-20 15:12:00,
2013-05-20 10:17:00,81.9,74.7,29.78,SE,134,16.0,22.0,79,0.00,,,0.00,meteohub,2013-05-20 15:17:00,
2013-05-20 10:22:00,81.7,74.5,29.78,SSE,151,14.0,23.0,79,0.00,,,0.00,meteohub,2013-05-20 15:22:00,
2013-05-20 10:27:00,81.5,74.3,29.78,SSE,158,15.0,23.0,79,0.00,,,0.00,meteohub,2013-05-20 15:27:00,
2013-05-20 10:32:00,81.9,75.0,29.78,South,191,12.0,24.0,80,0.00,,,0.00,meteohub,2013-05-20 15:32:00,
2013-05-20 10:37:00,81.9,74.7,29.77,SSE,163,12.0,24.0,79,0.00,,,0.00,meteohub,2013-05-20 15:37:00,
2013-05-20 10:42:00,82.2,75.0,29.77,SE,146,12.0,24.0,79,0.00,,,0.00,meteohub,2013-05-20 15:42:00,
2013-05-20 10:47:00,82.2,74.7,29.77,SE,133,15.0,21.0,78,0.00,,,0.00,meteohub,2013-05-20 15:47:00,
2013-05-20 10:52:00,82.6,74.7,29.77,SE,141,16.0,21.0,77,0.00,,,0.00,meteohub,2013-05-20 15:52:00,
2013-05-20 10:57:00,83.1,75.2,29.77,SSE,150,14.0,22.0,77,0.00,,,0.00,meteohub,2013-05-20 15:57:00,
2013-05-20 11:02:00,83.1,75.2,29.77,SSE,153,14.0,22.0,77,0.00,,,0.00,meteohub,2013-05-20 16:02:00,
2013-05-20 11:06:00,83.1,75.2,29.77,SE,129,20.0,23.0,77,0.00,,,0.00,meteohub,2013-05-20 16:06:00,
2013-05-20 11:12:00,83.1,75.2,29.77,SE,127,8.0,23.0,77,0.00,,,0.00,meteohub,2013-05-20 16:12:00,
2013-05-20 11:17:00,83.1,75.2,29.77,SE,143,15.0,23.0,77,0.00,,,0.00,meteohub,2013-05-20 16:17:00,
2013-05-20 11:22:00,83.5,75.0,29.77,SE,124,9.0,23.0,76,0.00,,,0.00,meteohub,2013-05-20 16:22:00,
2013-05-20 11:27:00,83.8,75.4,29.77,South,188,16.0,24.0,76,0.00,,,0.00,meteohub,2013-05-20 16:27:00,
2013-05-20 11:32:00,83.5,75.0,29.77,SSE,162,10.0,24.0,76,0.00,,,0.00,meteohub,2013-05-20 16:32:00,
2013-05-20 11:37:00,83.7,75.2,29.77,SE,134,10.0,24.0,76,0.00,,,0.00,meteohub,2013-05-20 16:37:00,
2013-05-20 11:42:00,83.5,74.7,29.76,SSE,150,17.0,25.0,75,0.00,,,0.00,meteohub,2013-05-20 16:42:00,
2013-05-20 11:47:00,83.8,75.0,29.77,SE,134,13.0,25.0,75,0.00,,,0.00,meteohub,2013-05-20 16:47:00,
2013-05-20 11:52:00,83.8,75.0,29.76,South,174,14.0,25.0,75,0.00,,,0.00,meteohub,2013-05-20 16:52:00,
2013-05-20 11:56:00,84.2,75.0,29.76,SE,134,19.0,25.0,74,0.00,,,0.00,meteohub,2013-05-20 16:56:00,
2013-05-20 12:01:00,84.4,75.2,29.76,SE,141,12.0,25.0,74,0.00,,,0.00,meteohub,2013-05-20 17:01:00,
2013-05-20 12:06:00,84.4,75.6,29.76,SE,134,23.0,25.0,75,0.00,,,0.00,meteohub,2013-05-20 17:06:00,
2013-05-20 12:11:00,84.2,75.4,29.76,ESE,117,14.0,25.0,75,0.00,,,0.00,meteohub,2013-05-20 17:11:00,
2013-05-20 12:17:00,84.6,75.0,29.75,SSE,160,14.0,25.0,73,0.00,,,0.00,meteohub,2013-05-20 17:17:00,
2013-05-20 12:22:00,84.4,75.6,29.75,SE,134,16.0,31.0,75,0.00,,,0.00,meteohub,2013-05-20 17:22:00,
2013-05-20 12:27:00,84.7,75.6,29.75,ESE,122,14.0,31.0,74,0.00,,,0.00,meteohub,2013-05-20 17:27:00,
2013-05-20 12:32:00,84.7,75.6,29.75,SE,143,21.0,31.0,74,0.00,,,0.00,meteohub,2013-05-20 17:32:00,
2013-05-20 12:37:00,84.9,75.2,29.75,SE,137,15.0,27.0,73,0.00,,,0.00,meteohub,2013-05-20 17:37:00,
2013-05-20 12:42:00,85.5,75.4,29.74,SE,134,16.0,27.0,72,0.00,,,0.00,meteohub,2013-05-20 17:42:00,
2013-05-20 12:47:00,85.6,75.2,29.74,SE,129,20.0,27.0,71,0.00,,,0.00,meteohub,2013-05-20 17:47:00,
2013-05-20 12:52:00,85.8,75.4,29.74,SE,129,17.0,27.0,71,0.00,,,0.00,meteohub,2013-05-20 17:52:00,
2013-05-20 12:57:00,86.5,75.2,29.73,SE,124,12.0,26.0,69,0.00,,,0.00,meteohub,2013-05-20 17:57:00,
2013-05-20 13:02:00,86.7,75.4,29.73,SSE,152,9.0,26.0,69,0.00,,,0.00,meteohub,2013-05-20 18:02:00,
2013-05-20 13:07:00,87.1,75.2,29.73,ESE,117,23.0,30.0,68,0.00,,,0.00,meteohub,2013-05-20 18:07:00,
2013-05-20 13:12:00,87.6,75.4,29.73,SE,130,19.0,30.0,67,0.00,,,0.00,meteohub,2013-05-20 18:12:00,
2013-05-20 13:17:00,87.4,74.7,29.73,SSE,153,19.0,30.0,66,0.00,,,0.00,meteohub,2013-05-20 18:17:00,
2013-05-20 13:22:00,87.4,75.2,29.73,SE,146,13.0,28.0,67,0.00,,,0.00,meteohub,2013-05-20 18:22:00,
2013-05-20 13:27:00,88.2,74.8,29.73,SE,134,16.0,28.0,65,0.00,,,0.00,meteohub,2013-05-20 18:27:00,
2013-05-20 13:32:00,88.0,74.7,29.72,SE,141,23.0,29.0,65,0.00,,,0.00,meteohub,2013-05-20 18:32:00,
2013-05-20 13:37:00,88.2,74.5,29.72,SSE,149,28.0,30.0,64,0.00,,,0.00,meteohub,2013-05-20 18:37:00,
2013-05-20 13:42:00,88.2,74.5,29.72,SSE,150,16.0,30.0,64,0.00,,,0.00,meteohub,2013-05-20 18:42:00,
2013-05-20 13:47:00,88.3,74.1,29.72,SSE,165,20.0,30.0,63,0.00,,,0.00,meteohub,2013-05-20 18:47:00,
2013-05-20 13:52:00,88.5,74.3,29.72,SSE,165,22.0,29.0,63,0.00,,,0.00,meteohub,2013-05-20 18:52:00,
2013-05-20 13:57:00,88.3,74.1,29.71,SSE,167,12.0,29.0,63,0.00,,,0.00,meteohub,2013-05-20 18:57:00,
2013-05-20 14:02:00,88.5,74.8,29.71,SE,130,18.0,30.0,64,0.00,,,0.00,meteohub,2013-05-20 19:02:00,
2013-05-20 14:07:00,88.7,75.4,29.71,SE,134,21.0,30.0,65,0.00,,,0.00,meteohub,2013-05-20 19:07:00,
2013-05-20 14:12:00,88.3,75.0,29.71,ESE,107,19.0,28.0,65,0.00,,,0.00,meteohub,2013-05-20 19:12:00,
2013-05-20 14:17:00,88.5,73.8,29.71,SSE,166,15.0,28.0,62,0.00,,,0.00,meteohub,2013-05-20 19:17:00,
2013-05-20 14:22:00,88.9,74.7,29.71,ESE,118,19.0,27.0,63,0.00,,,0.00,meteohub,2013-05-20 19:22:00,
2013-05-20 14:27:00,88.9,74.7,29.71,South,174,17.0,28.0,63,0.00,,,0.00,meteohub,2013-05-20 19:27:00,
2013-05-20 14:32:00,89.1,74.8,29.71,SSE,149,17.0,28.0,63,0.00,,,0.00,meteohub,2013-05-20 19:32:00,
2013-05-20 14:37:00,88.9,75.6,29.71,ESE,117,12.0,29.0,65,0.00,,,0.00,meteohub,2013-05-20 19:37:00,
2013-05-20 14:42:00,88.7,74.5,29.71,SSE,158,18.0,29.0,63,0.00,,,0.00,meteohub,2013-05-20 19:42:00,
2013-05-20 14:47:00,88.9,75.2,29.71,SE,143,17.0,28.0,64,0.00,,,0.00,meteohub,2013-05-20 19:47:00,
2013-05-20 14:52:00,88.9,75.2,29.71,SE,136,19.0,28.0,64,0.00,,,0.00,meteohub,2013-05-20 19:52:00,
2013-05-20 14:57:00,89.2,75.0,29.70,ESE,122,10.0,28.0,63,0.00,,,0.00,meteohub,2013-05-20 19:57:00,
2013-05-20 15:02:00,89.4,74.7,29.70,SE,134,15.0,27.0,62,0.00,,,0.00,meteohub,2013-05-20 20:02:00,
2013-05-20 15:07:00,89.4,74.1,29.70,ESE,112,23.0,25.0,61,0.00,,,0.00,meteohub,2013-05-20 20:07:00,
2013-05-20 15:12:00,89.2,75.4,29.70,SE,141,16.0,25.0,64,0.00,,,0.00,meteohub,2013-05-20 20:12:00,
2013-05-20 15:17:00,89.6,74.8,29.70,SE,134,15.0,27.0,62,0.00,,,0.00,meteohub,2013-05-20 20:17:00,
2013-05-20 15:22:00,89.1,74.8,29.70,ESE,120,24.0,27.0,63,0.00,,,0.00,meteohub,2013-05-20 20:22:00,
2013-05-20 15:27:00,88.9,75.2,29.69,SE,132,26.0,27.0,64,0.00,,,0.00,meteohub,2013-05-20 20:27:00,
2013-05-20 15:32:00,89.2,75.4,29.69,SE,134,21.0,27.0,64,0.00,,,0.00,meteohub,2013-05-20 20:32:00,
2013-05-20 15:37:00,88.3,75.0,29.69,SE,134,22.0,31.0,65,0.00,,,0.00,meteohub,2013-05-20 20:37:00,
2013-05-20 15:42:00,88.3,75.6,29.69,SE,143,11.0,31.0,66,0.00,,,0.00,meteohub,2013-05-20 20:42:00,
2013-05-20 15:47:00,88.7,75.4,29.69,SE,130,10.0,31.0,65,0.00,,,0.00,meteohub,2013-05-20 20:47:00,
2013-05-20 15:53:00,88.7,75.4,29.68,ESE,113,18.0,27.0,65,0.00,,,0.00,meteohub,2013-05-20 20:53:00,
2013-05-20 15:58:00,88.5,74.8,29.68,SE,127,18.0,26.0,64,0.00,,,0.00,meteohub,2013-05-20 20:58:00,
2013-05-20 16:03:00,88.7,74.5,29.68,SE,137,20.0,27.0,63,0.00,,,0.00,meteohub,2013-05-20 21:03:00,
2013-05-20 16:08:00,88.3,75.0,29.68,SE,134,20.0,29.0,65,0.00,,,0.00,meteohub,2013-05-20 21:08:00,
2013-05-20 16:13:00,88.2,74.8,29.68,ESE,118,20.0,30.0,65,0.00,,,0.00,meteohub,2013-05-20 21:13:00,
2013-05-20 16:18:00,88.3,74.7,29.68,ESE,116,16.0,30.0,64,0.00,,,0.00,meteohub,2013-05-20 21:18:00,
2013-05-20 16:23:00,88.3,74.7,29.68,SE,146,23.0,28.0,64,0.00,,,0.00,meteohub,2013-05-20 21:23:00,
2013-05-20 16:28:00,88.2,74.8,29.67,ESE,112,21.0,27.0,65,0.00,,,0.00,meteohub,2013-05-20 21:28:00,
2013-05-20 16:33:00,88.3,74.1,29.67,ESE,113,20.0,27.0,63,0.00,,,0.00,meteohub,2013-05-20 21:33:00,
2013-05-20 16:38:00,88.3,74.7,29.67,SSE,153,12.0,28.0,64,0.00,,,0.00,meteohub,2013-05-20 21:38:00,
2013-05-20 16:43:00,88.3,74.7,29.67,SE,146,14.0,28.0,64,0.00,,,0.00,meteohub,2013-05-20 21:43:00,
2013-05-20 16:48:00,88.5,74.8,29.67,SE,132,14.0,28.0,64,0.00,,,0.00,meteohub,2013-05-20 21:48:00,
2013-05-20 16:53:00,88.5,74.8,29.67,ESE,117,17.0,29.0,64,0.00,,,0.00,meteohub,2013-05-20 21:53:00,
2013-05-20 16:58:00,88.0,74.3,29.66,SE,127,20.0,29.0,64,0.00,,,0.00,meteohub,2013-05-20 21:58:00,
2013-05-20 17:03:00,88.0,74.7,29.67,SE,127,18.0,31.0,65,0.00,,,0.00,meteohub,2013-05-20 22:03:00,
2013-05-20 17:08:00,87.4,74.3,29.67,SE,132,19.0,31.0,65,0.00,,,0.00,meteohub,2013-05-20 22:08:00,
2013-05-20 17:13:00,87.3,75.0,29.66,SE,143,14.0,31.0,67,0.00,,,0.00,meteohub,2013-05-20 22:13:00,
2013-05-20 17:18:00,87.3,75.0,29.66,ESE,107,16.0,29.0,67,0.00,,,0.00,meteohub,2013-05-20 22:18:00,
2013-05-20 17:24:00,87.3,75.0,29.66,SE,139,20.0,29.0,67,0.00,,,0.00,meteohub,2013-05-20 22:24:00,
2013-05-20 17:29:00,86.9,75.0,29.66,SE,134,19.0,28.0,68,0.00,,,0.00,meteohub,2013-05-20 22:29:00,
2013-05-20 17:34:00,86.7,75.4,29.66,SE,130,19.0,31.0,69,0.00,,,0.00,meteohub,2013-05-20 22:34:00,
2013-05-20 17:39:00,86.4,75.0,29.66,ESE,117,23.0,31.0,69,0.00,,,0.00,meteohub,2013-05-20 22:39:00,
2013-05-20 17:44:00,86.2,75.2,29.66,ESE,106,23.0,31.0,70,0.00,,,0.00,meteohub,2013-05-20 22:44:00,
2013-05-20 17:49:00,86.0,74.7,29.66,ESE,120,18.0,31.0,69,0.00,,,0.00,meteohub,2013-05-20 22:49:00,
2013-05-20 17:54:00,86.0,75.6,29.66,ESE,113,17.0,31.0,71,0.00,,,0.00,meteohub,2013-05-20 22:54:00,
2013-05-20 17:59:00,85.8,74.8,29.66,ESE,123,24.0,28.0,70,0.00,,,0.00,meteohub,2013-05-20 22:59:00,
2013-05-20 18:04:00,85.6,75.2,29.66,SE,138,17.0,28.0,71,0.00,,,0.00,meteohub,2013-05-20 23:04:00,
2013-05-20 18:09:00,85.5,75.4,29.66,SE,129,24.0,28.0,72,0.00,,,0.00,meteohub,2013-05-20 23:09:00,
2013-05-20 18:14:00,85.5,75.4,29.66,ESE,102,19.0,26.0,72,0.00,,,0.00,meteohub,2013-05-20 23:14:00,
2013-05-20 18:19:00,84.9,75.2,29.66,SE,134,15.0,26.0,73,0.00,,,0.00,meteohub,2013-05-20 23:19:00,
2013-05-20 18:24:00,84.7,75.2,29.66,SE,124,17.0,28.0,73,0.00,,,0.00,meteohub,2013-05-20 23:24:00,
2013-05-20 18:29:00,84.2,75.4,29.66,ESE,116,17.0,28.0,75,0.00,,,0.00,meteohub,2013-05-20 23:29:00,
2013-05-20 18:34:00,84.0,75.6,29.66,ESE,111,17.0,28.0,76,0.00,,,0.00,meteohub,2013-05-20 23:34:00,
2013-05-20 18:40:00,84.0,75.2,29.66,SE,134,14.0,27.0,75,0.00,,,0.00,meteohub,2013-05-20 23:40:00,
2013-05-20 18:45:00,83.7,75.7,29.66,SE,129,13.0,27.0,77,0.00,,,0.00,meteohub,2013-05-20 23:45:00,
2013-05-20 18:50:00,83.7,75.7,29.66,ESE,117,10.0,25.0,77,0.00,,,0.00,meteohub,2013-05-20 23:50:00,
2013-05-20 18:55:00,83.7,75.7,29.66,ESE,117,13.0,25.0,77,0.00,,,0.00,meteohub,2013-05-20 23:55:00,
2013-05-20 19:00:00,83.1,75.6,29.66,SE,125,18.0,25.0,78,0.00,,,0.00,meteohub,2013-05-21 00:00:00,
2013-05-20 19:05:00,82.9,75.4,29.66,ESE,122,11.0,24.0,78,0.00,,,0.00,meteohub,2013-05-21 00:05:00,
2013-05-20 19:10:00,82.8,75.6,29.66,SE,136,11.0,24.0,79,0.00,,,0.00,meteohub,2013-05-21 00:10:00,
2013-05-20 19:15:00,82.6,75.4,29.66,ESE,120,17.0,21.0,79,0.00,,,0.00,meteohub,2013-05-21 00:15:00,
2013-05-20 19:20:00,82.2,75.4,29.66,ESE,112,13.0,22.0,80,0.00,,,0.00,meteohub,2013-05-21 00:20:00,
2013-05-20 19:26:00,82.0,75.6,29.66,ESE,117,12.0,23.0,81,0.00,,,0.00,meteohub,2013-05-21 00:26:00,
2013-05-20 19:31:00,81.7,75.2,29.67,SE,124,16.0,23.0,81,0.00,,,0.00,meteohub,2013-05-21 00:31:00,
2013-05-20 19:36:00,81.7,75.6,29.67,ESE,113,11.0,26.0,82,0.00,,,0.00,meteohub,2013-05-21 00:36:00,
2013-05-20 19:41:00,81.3,75.4,29.68,SE,124,17.0,26.0,82,0.00,,,0.00,meteohub,2013-05-21 00:41:00,
2013-05-20 19:46:00,81.0,75.4,29.68,ESE,112,10.0,22.0,83,0.00,,,0.00,meteohub,2013-05-21 00:46:00,
2013-05-20 19:51:00,81.0,75.4,29.68,ESE,121,17.0,22.0,83,0.00,,,0.00,meteohub,2013-05-21 00:51:00,
2013-05-20 19:56:00,80.4,75.2,29.67,ESE,108,15.0,21.0,84,0.00,,,0.00,meteohub,2013-05-21 00:56:00,
2013-05-20 20:01:00,80.4,75.2,29.68,SE,133,12.0,21.0,84,0.00,,,0.00,meteohub,2013-05-21 01:01:00,
2013-05-20 20:06:00,80.2,75.0,29.68,ESE,115,14.0,21.0,84,0.00,,,0.00,meteohub,2013-05-21 01:06:00,
2013-05-20 20:11:00,80.2,75.4,29.68,SE,136,9.0,19.0,85,0.00,,,0.00,meteohub,2013-05-21 01:11:00,
2013-05-20 20:16:00,80.1,75.2,29.68,ESE,117,15.0,19.0,85,0.00,,,0.00,meteohub,2013-05-21 01:16:00,
2013-05-20 20:21:00,79.9,75.4,29.68,SE,129,12.0,22.0,86,0.00,,,0.00,meteohub,2013-05-21 01:21:00,
2013-05-20 20:26:00,79.5,75.0,29.68,SE,134,14.0,22.0,86,0.00,,,0.00,meteohub,2013-05-21 01:26:00,
2013-05-20 20:32:00,79.5,75.0,29.68,ESE,107,13.0,21.0,86,0.00,,,0.00,meteohub,2013-05-21 01:32:00,
2013-05-20 20:37:00,79.3,75.2,29.68,SE,127,13.0,21.0,87,0.00,,,0.00,meteohub,2013-05-21 01:37:00,
2013-05-20 20:42:00,79.3,75.2,29.68,SE,130,11.0,21.0,87,0.00,,,0.00,meteohub,2013-05-21 01:42:00,
2013-05-20 20:47:00,79.3,75.2,29.69,SSE,162,10.0,21.0,87,0.00,,,0.00,meteohub,2013-05-21 01:47:00,
2013-05-20 20:52:00,79.3,75.2,29.69,ESE,117,14.0,19.0,87,0.00,,,0.00,meteohub,2013-05-21 01:52:00,
2013-05-20 20:57:00,79.2,75.0,29.69,SE,141,14.0,19.0,87,0.00,,,0.00,meteohub,2013-05-21 01:57:00,
2013-05-20 21:02:00,79.2,75.0,29.69,SE,137,9.0,19.0,87,0.00,,,0.00,meteohub,2013-05-21 02:02:00,
2013-05-20 21:07:00,79.2,75.0,29.69,ESE,122,13.0,19.0,87,0.00,,,0.00,meteohub,2013-05-21 02:07:00,
2013-05-20 21:12:00,79.2,75.0,29.70,SE,136,8.0,18.0,87,0.00,,,0.00,meteohub,2013-05-21 02:12:00,
2013-05-20 21:17:00,79.2,75.0,29.70,SE,128,10.0,19.0,87,0.00,,,0.00,meteohub,2013-05-21 02:17:00,
2013-05-20 21:22:00,79.0,74.8,29.70,SE,124,15.0,19.0,87,0.00,,,0.00,meteohub,2013-05-21 02:22:00,
2013-05-20 21:27:00,79.0,74.8,29.71,ESE,116,9.0,17.0,87,0.00,,,0.00,meteohub,2013-05-21 02:27:00,
2013-05-20 21:32:00,79.2,75.0,29.70,SSE,149,13.0,17.0,87,0.00,,,0.00,meteohub,2013-05-21 02:32:00,
2013-05-20 21:37:00,79.2,75.0,29.70,SE,141,14.0,17.0,87,0.00,,,0.00,meteohub,2013-05-21 02:37:00,
2013-05-20 21:42:00,79.2,75.0,29.70,SE,132,15.0,17.0,87,0.00,,,0.00,meteohub,2013-05-21 02:42:00,
2013-05-20 21:47:00,79.2,75.4,29.71,ESE,121,12.0,19.0,88,0.00,,,0.00,meteohub,2013-05-21 02:47:00,
2013-05-20 21:52:00,79.2,75.4,29.71,SE,141,12.0,21.0,88,0.00,,,0.00,meteohub,2013-05-21 02:52:00,
2013-05-20 21:57:00,79.2,75.4,29.71,SE,127,14.0,21.0,88,0.00,,,0.00,meteohub,2013-05-21 02:57:00,
2013-05-20 22:02:00,79.2,75.4,29.72,SE,143,10.0,18.0,88,0.00,,,0.00,meteohub,2013-05-21 03:02:00,
2013-05-20 22:07:00,79.2,75.4,29.72,SE,141,12.0,19.0,88,0.00,,,0.00,meteohub,2013-05-21 03:07:00,
2013-05-20 22:12:00,79.2,75.4,29.73,ESE,113,15.0,19.0,88,0.00,,,0.00,meteohub,2013-05-21 03:12:00,
2013-05-20 22:17:00,79.3,75.2,29.73,SE,127,12.0,19.0,87,0.00,,,0.00,meteohub,2013-05-21 03:17:00,
2013-05-20 22:22:00,79.3,75.2,29.73,SE,127,15.0,22.0,87,0.00,,,0.00,meteohub,2013-05-21 03:22:00,
2013-05-20 22:27:00,79.3,75.2,29.73,SSE,148,9.0,22.0,87,0.00,,,0.00,meteohub,2013-05-21 03:27:00,
2013-05-20 22:32:00,79.3,75.6,29.72,SSE,162,15.0,20.0,88,0.00,,,0.00,meteohub,2013-05-21 03:32:00,
2013-05-20 22:37:00,79.3,75.6,29.72,SSE,153,10.0,18.0,88,0.00,,,0.00,meteohub,2013-05-21 03:37:00,
2013-05-20 22:42:00,79.3,75.6,29.72,SSE,160,11.0,20.0,88,0.00,,,0.00,meteohub,2013-05-21 03:42:00,
2013-05-20 22:47:00,79.3,75.6,29.73,SE,141,17.0,20.0,88,0.00,,,0.00,meteohub,2013-05-21 03:47:00,
2013-05-20 22:52:00,79.3,75.6,29.73,SE,130,14.0,20.0,88,0.00,,,0.00,meteohub,2013-05-21 03:52:00,
2013-05-20 22:57:00,79.2,75.4,29.73,SSE,153,11.0,20.0,88,0.00,,,0.00,meteohub,2013-05-21 03:57:00,
2013-05-20 23:01:00,79.3,75.6,29.73,SE,141,12.0,20.0,88,0.00,,,0.00,meteohub,2013-05-21 04:01:00,
2013-05-20 23:02:00,79.3,75.6,29.73,SSE,149,15.0,20.0,88,0.00,,,0.00,meteohub,2013-05-21 04:02:00,
2013-05-20 23:07:00,79.2,75.4,29.73,SE,141,11.0,19.0,88,0.00,,,0.00,meteohub,2013-05-21 04:07:00,
2013-05-20 23:13:00,79.2,75.4,29.73,SE,132,12.0,20.0,88,0.00,,,0.00,meteohub,2013-05-21 04:13:00,
2013-05-20 23:18:00,79.0,75.2,29.73,ESE,110,16.0,20.0,88,0.00,,,0.00,meteohub,2013-05-21 04:18:00,
2013-05-20 23:23:00,79.0,75.2,29.73,SE,125,10.0,20.0,88,0.00,,,0.00,meteohub,2013-05-21 04:23:00,
2013-05-20 23:28:00,78.8,75.0,29.73,SE,132,10.0,20.0,88,0.00,,,0.00,meteohub,2013-05-21 04:28:00,
2013-05-20 23:33:00,78.8,75.0,29.73,SE,127,13.0,17.0,88,0.00,,,0.00,meteohub,2013-05-21 04:33:00,
2013-05-20 23:38:00,78.6,74.8,29.73,SE,135,13.0,17.0,88,0.00,,,0.00,meteohub,2013-05-21 04:38:00,
2013-05-20 23:43:00,78.6,74.8,29.73,SE,127,13.0,20.0,88,0.00,,,0.00,meteohub,2013-05-21 04:43:00,
2013-05-20 23:48:00,78.6,75.0,29.73,SE,134,12.0,20.0,89,0.00,,,0.00,meteohub,2013-05-21 04:48:00,
2013-05-20 23:53:00,78.4,74.8,29.73,ESE,110,9.0,20.0,89,0.00,,,0.00,meteohub,2013-05-21 04:53:00,
2013-05-20 23:58:00,78.4,74.8,29.73,SE,125,8.0,18.0,89,0.00,,,0.00,meteohub,2013-05-21 04:58:00,